ZHUHAI-1 OHS-03 (43442 NORAD) Tracking and Keplerian Element Data

This shows tracking and keplerian element data for the satellite.

Feedback or suggestion? Click here.




ElementValue
Catalog43442
NameZHUHAI-1 OHS-03
Epoch Orbit451
Epoch Day145.87565041
Epoch Year2018
RAAN228.2721
Inclination97.394
Eccentricity0.0005567
Argument of Perigee196.6437
Mean Anonmoly270.9962
Mean Motion15.17718815
Decay Rate7.79E-06
L11 43442U 18040D 18145.87565041 .00000779 00000-0 41905-4 0 9991
L22 43442 97.3940 228.2721 0005567 196.6437 270.9962 15.17718815 4513

Live tracking and technical data element details for ZHUHAI-1 OHS-03 (NORAD 43442). ZHUHAI-1 OHS-03 can be tracked NOW for your location showing map with azimuth and elevation plus other details from your city location.

Track the satellite on the map from your city or location and see movement details for azimuth, elevation, latitude, longitude, range, height, and movement on the map or in text.







IsCatalogInMostPopularTable: catalog: 43442, numindb: 51
Update: records affected: 1



GetName: 43442 ZHUHAI-1 OHS-03

Hit Count: updated at: Thu, 15 Nov 2018 03:41:54 GMT